Temp
63 63 64 64 64 64 64 64 64 64 64 64 64 64 64 64 64 69 74 74 74 70 70 79 80 78 79 73 72 72 70 64 64 64 68 71 71 73 74 74 74 73 71 66 67
63 63 63 63 63 64 64 64 64 64 64 64 64 64 64 63 71 73 72 72 71 70 78 78 76 76 75 71 72 73 69 65 70 71 70 71 71 71 71 71 71 70 67 67 68
62 62 63 63 63 63 63 63 63 63 64 63 63 63 63 65 74 73 70 72 71 73 78 77 77 75 70 71 68 66 68 67 68 70 71 69 69 72 70 69 71 70 67 64 65
62 62 62 62 63 63 63 63 63 63 63 63 63 63 63 71 65 74 70 71 71 77 77 75 75 71 68 66 67 66 66 67 67 68 67 67 70 69 70 70 65 65 63 62 62
61 61 61 62 62 63 63 63 63 63 63 63 63 63 70 72 72 73 67 70 76 76 75 73 72 70 67 67 66 65 65 65 67 66 66 65 67 69 69 64 63 61 60 60 60
61 61 61 61 62 63 63 63 63 62 63 63 63 62 73 66 72 73 72 72 75 76 73 74 72 72 67 66 65 66 64 66 67 66 65 64 66 65 65 63 61 61 60 58 57
61 61 61 61 61 62 62 62 62 62 62 63 63 67 69 71 73 74 73 72 73 75 72 72 74 71 69 63 65 63 63 67 68 65 65 65 59 62 65 62 60 58 57 55 55
61 60 60 60 61 61 61 61 61 62 63 63 63 69 68 70 74 71 73 71 73 74 72 72 74 69 67 66 64 61 61 59 64 62 61 63 62 65 63 62 61 58 57 55 53
60 60 60 60 60 60 61 62 61 62 63 63 67 68 66 68 67 70 72 71 70 71 71 71 71 64 65 63 60 58 58 56 59 62 61 61 62 63 64 64 61 60 58 56 54
59 59 60 60 60 60 62 62 61 62 64 65 67 63 64 63 65 67 70 70 68 67 68 66 65 62 61 61 54 56 54 54 57 60 59 60 61 63 62 63 64 60 56 55 53
59 59 60 60 60 61 63 64 62 60 60 65 65 64 62 64 67 64 68 68 68 66 60 59 59 55 61 63 61 58 56 57 58 59 57 60 60 66 65 61 60 58 55 54 50
59 60 60 60 60 61 63 60 62 63 58 62 61 61 64 66 59 62 67 64 62 58 57 56 54 63 58 57 57 55 55 56 57 56 56 58 56 64 63 61 62 60 55 53 50
60 60 60 60 60 59 61 60 64 64 58 59 60 60 60 63 62 59 64 61 59 53 55 57 57 57 56 52 52 53 53 55 54 53 54 53 55 58 59 52 51 54 55 52 52
60 59 59 59 56 60 57 64 65 64 54 55 55 59 59 63 57 60 64 62 56 56 54 56 56 53 52 53 55 51 56 54 51 50 47 52 48 55 57 52 48 48 50 50 50
60 59 59 59 61 57 62 65 64 64 37 55 51 61 58 59 55 53 60 60 54 52 55 55 49 49 51 54 55 53 52 52 50 49 46 48 46 54 50 51 49 48 49 50 50
59 59 59 57 58 61 60 61 64 49 37 47 51 50 52 52 51 53 55 60 57 52 52 54 54 54 55 50 54 50 49 48 47 46 39 47 48 51 55 55 51 49 48 48 48
58 58 57 61 55 59 60 59 46 40 54 45 46 49 49 46 46 50 49 49 49 44 45 48 50 52 52 48 49 51 49 41 37 36 37 42 42 53 58 52 52 49 48 47 47
58 58 57 60 60 60 58 49 37 51 52 48 46 47 46 47 46 44 46 46 50 48 45 43 42 48 52 53 49 48 51 44 32 34 41 36 38 50 47 46 46 48 49 47 46
58 56 56 58 58 59 49 39 44 51 57 47 46 44 44 46 47 45 44 48 52 50 48 43 43 48 48 51 55 46 42 50 38 28 36 45 46 52 43 44 44 44 45 45 46
55 54 55 60 58 54 44 42 48 57 56 51 47 50 43 44 44 45 43 51 47 51 54 52 44 45 46 51 49 49 52 40 42 31 31 41 42 50 43 46 43 41 43 45 46
54 50 57 60 56 48 40 43 50 55 55 51 50 49 50 45 48 44 47 49 53 48 53 51 47 41 45 45 46 43 44 43 46 42 36 37 44 53 54 51 47 47 46 46 46
53 46 57 58 45 47 42 47 52 54 54 55 54 55 49 48 46 45 45 54 54 50 44 50 45 38 42 45 45 51 49 47 42 34 38 36 43 46 49 52 51 51 47 48 49
49 50 57 56 41 42 47 48 52 50 53 52 49 53 54 49 45 48 48 54 53 51 48 48 41 35 37 41 41 41 43 48 50 40 36 35 42 44 45 46 48 50 48 47 47
48 43 48 51 52 47 44 44 44 52 52 53 52 54 50 48 50 47 46 47 49 53 49 53 44 43 39 45 47 39 41 43 45 39 41 40 45 43 46 46 48 47 48 48 46
45 42 43 41 45 47 48 48 44 43 50 52 46 50 49 44 46 46 49 43 44 47 47 50 39 45 48 47 45 44 43 41 42 46 41 47 44 47 48 47 52 52 48 46 45
39 39 41 39 42 46 46 44 44 46 45 44 45 48 49 45 49 45 48 48 45 42 42 45 39 43 37 42 42 39 43 42 43 46 46 47 45 54 53 52 48 47 45 44 45
41 42 41 40 38 38 44 45 45 49 50 52 49 48 45 49 54 54 52 52 50 44 39 39 38 33 32 36 33 30 37 40 42 46 46 39 46 44 44 44 47 47 46 46 47
MSLP
1020.90 1020.85 1020.63 1020.65 1020.70 1020.69 1020.52 1020.39 1020.18 1020.05 1019.91 1019.63 1019.35 1019.06 1018.85 1018.55 1018.21 1018.01 1017.51 1017.44 1017.25 1017.18 1017.11 1016.76 1016.56 1016.53 1016.36 1016.60 1016.87 1016.73 1015.68 1015.56 1015.73 1015.93 1016.01 1016.72 1016.64 1017.02 1017.30 1017.14 1017.53 1018.27 1018.98 1020.38 1020.68
1020.81 1020.93 1020.78 1020.60 1020.71 1020.65 1020.55 1020.48 1020.34 1020.19 1019.89 1019.55 1019.21 1018.88 1018.73 1018.53 1017.96 1017.50 1017.54 1017.28 1017.15 1017.19 1016.91 1016.58 1016.41 1016.46 1016.42 1016.84 1016.97 1016.41 1015.95 1016.03 1016.23 1016.25 1016.33 1016.83 1016.97 1017.12 1017.38 1017.53 1018.10 1019.00 1020.15 1020.82 1020.88
1020.60 1020.74 1020.88 1020.71 1020.63 1020.62 1020.58 1020.52 1020.41 1020.21 1019.91 1019.53 1019.16 1018.83 1018.58 1018.42 1017.76 1017.34 1017.38 1017.27 1017.22 1017.13 1017.00 1016.86 1016.67 1016.55 1016.58 1016.97 1017.16 1016.94 1016.43 1016.81 1016.94 1017.00 1017.08 1017.17 1017.24 1017.48 1017.51 1017.75 1018.39 1019.04 1020.19 1021.06 1021.25
1020.46 1020.54 1020.73 1020.80 1020.70 1020.64 1020.61 1020.52 1020.40 1020.20 1019.94 1019.54 1019.19 1018.85 1018.51 1018.08 1017.77 1017.33 1017.35 1017.29 1017.32 1017.17 1017.00 1016.92 1016.67 1016.56 1016.74 1016.94 1017.32 1017.08 1017.33 1017.33 1017.47 1017.63 1017.75 1017.57 1017.63 1017.68 1018.00 1018.58 1019.59 1020.27 1021.03 1021.60 1021.81
1020.37 1020.47 1020.60 1020.71 1020.77 1020.66 1020.65 1020.51 1020.27 1020.03 1019.83 1019.57 1019.27 1018.93 1018.38 1017.74 1017.29 1017.31 1017.41 1017.40 1017.32 1017.20 1017.09 1016.95 1016.82 1016.88 1016.86 1017.18 1017.45 1017.37 1017.55 1017.71 1017.75 1017.94 1017.97 1018.04 1017.76 1017.85 1018.27 1019.54 1020.46 1021.14 1021.63 1021.94 1022.35
1020.32 1020.38 1020.47 1020.49 1020.56 1020.61 1020.56 1020.43 1020.19 1019.92 1019.65 1019.49 1019.27 1018.94 1018.36 1017.88 1017.35 1017.32 1017.38 1017.53 1017.40 1017.18 1017.26 1017.17 1017.01 1017.21 1017.32 1017.52 1017.71 1017.71 1017.80 1017.65 1017.62 1017.64 1017.94 1017.98 1017.89 1018.43 1018.65 1019.80 1020.65 1021.32 1021.88 1022.49 1022.96
1020.10 1020.25 1020.31 1020.36 1020.31 1020.35 1020.38 1020.26 1020.07 1019.86 1019.56 1019.35 1019.12 1018.81 1018.30 1017.69 1017.37 1017.45 1017.52 1017.63 1017.63 1017.42 1017.35 1017.57 1017.43 1017.31 1017.59 1017.89 1018.24 1018.06 1017.68 1017.23 1017.11 1017.56 1017.74 1018.01 1018.08 1017.74 1018.60 1019.86 1020.73 1021.64 1022.29 1022.94 1023.40
1019.68 1019.93 1020.05 1020.14 1020.21 1020.18 1020.16 1020.16 1020.03 1019.79 1019.64 1019.38 1019.11 1018.66 1017.90 1017.68 1017.63 1017.69 1017.64 1017.80 1017.84 1017.77 1017.75 1017.91 1017.78 1017.82 1017.96 1018.41 1018.23 1017.97 1017.84 1017.08 1016.96 1017.48 1017.94 1018.13 1016.84 1017.35 1018.67 1019.48 1020.35 1021.34 1022.15 1022.84 1023.60
1019.24 1019.50 1019.76 1019.92 1020.07 1020.11 1020.12 1020.05 1019.94 1019.80 1019.64 1019.43 1019.07 1018.63 1017.89 1017.87 1017.86 1017.79 1017.72 1017.62 1017.93 1018.08 1018.20 1018.25 1018.05 1018.32 1018.43 1017.94 1017.93 1017.80 1016.88 1016.97 1017.01 1017.39 1017.73 1017.91 1016.87 1017.64 1018.60 1019.22 1019.97 1020.86 1021.82 1022.92 1023.70
1018.92 1019.24 1019.37 1019.62 1019.85 1020.00 1019.93 1019.96 1019.80 1019.73 1019.62 1019.44 1019.17 1019.05 1018.04 1017.63 1017.71 1017.90 1017.98 1017.87 1017.93 1018.14 1018.20 1018.28 1018.40 1018.32 1018.31 1017.76 1016.68 1016.73 1017.02 1017.05 1017.04 1017.49 1017.71 1017.45 1016.92 1017.47 1018.36 1018.97 1019.49 1020.71 1022.03 1023.06 1023.95
1018.46 1018.94 1019.08 1019.32 1019.63 1019.75 1019.81 1019.84 1020.08 1019.80 1019.29 1017.94 1017.56 1017.32 1017.32 1017.90 1018.00 1018.05 1018.11 1018.05 1018.06 1018.15 1017.97 1018.62 1018.23 1017.28 1016.94 1017.08 1017.22 1017.18 1017.11 1016.84 1017.31 1017.88 1017.92 1017.23 1016.84 1016.73 1017.87 1018.75 1019.40 1020.51 1021.75 1022.84 1024.07
1018.05 1018.37 1018.79 1019.05 1019.43 1019.61 1019.59 1019.25 1018.73 1018.86 1018.05 1017.15 1017.38 1017.38 1017.32 1017.38 1017.87 1018.08 1018.19 1018.00 1018.01 1017.84 1018.43 1018.87 1017.71 1017.02 1017.64 1017.94 1017.88 1017.88 1017.60 1017.20 1017.71 1018.16 1018.14 1017.39 1016.88 1016.58 1017.36 1018.08 1018.99 1020.17 1021.73 1022.91 1023.94
1017.28 1017.87 1018.27 1018.89 1019.37 1019.58 1019.10 1018.80 1018.62 1018.56 1018.09 1016.76 1016.63 1016.60 1016.91 1017.29 1017.08 1017.49 1017.91 1017.90 1017.76 1018.00 1017.86 1017.46 1017.54 1017.52 1017.93 1018.39 1018.42 1018.17 1017.89 1017.68 1018.03 1018.39 1018.24 1017.83 1016.29 1015.90 1016.88 1018.51 1019.78 1020.58 1021.52 1022.59 1023.26
1016.45 1017.18 1017.76 1018.62 1019.62 1018.94 1018.64 1018.08 1018.60 1018.60 1017.75 1016.24 1016.22 1015.82 1016.41 1016.61 1017.28 1017.48 1017.59 1017.68 1018.00 1017.62 1018.18 1017.92 1017.85 1018.04 1018.27 1018.19 1018.36 1018.16 1018.10 1018.42 1018.64 1018.82 1018.05 1017.97 1015.70 1015.57 1016.27 1017.76 1019.30 1020.47 1021.50 1022.43 1023.33
1015.79 1016.24 1017.19 1017.90 1017.63 1018.03 1017.48 1017.69 1018.43 1018.70 1017.22 1015.04 1015.97 1016.47 1016.35 1016.31 1016.92 1017.84 1017.96 1017.58 1017.63 1017.74 1018.15 1017.26 1017.80 1018.16 1018.13 1017.90 1018.52 1018.46 1018.68 1018.90 1019.04 1018.90 1018.79 1018.10 1017.57 1015.03 1016.25 1016.99 1018.47 1019.98 1021.08 1022.16 1023.34
1014.76 1015.20 1016.48 1017.63 1017.64 1017.27 1017.47 1017.89 1018.26 1018.60 1014.70 1015.00 1015.73 1016.15 1016.45 1016.92 1017.38 1017.92 1018.00 1017.87 1018.06 1018.13 1018.12 1017.76 1018.18 1018.09 1018.00 1018.56 1018.78 1019.35 1019.45 1019.70 1019.86 1019.68 1018.43 1017.22 1017.15 1014.83 1015.20 1015.90 1017.69 1019.70 1021.29 1022.29 1023.16
1013.93 1013.78 1015.19 1016.58 1016.20 1016.88 1017.42 1017.82 1017.92 1015.30 1013.25 1014.39 1014.92 1015.58 1015.87 1016.68 1017.38 1017.44 1017.61 1017.68 1017.34 1017.95 1017.54 1017.94 1017.75 1017.87 1018.22 1018.80 1019.44 1019.06 1019.12 1019.24 1019.51 1019.56 1017.72 1017.59 1017.39 1014.88 1015.39 1016.57 1017.70 1019.10 1020.96 1022.50 1023.53
1012.80 1013.44 1013.81 1014.67 1015.68 1016.52 1017.28 1017.08 1014.74 1009.91 1011.57 1013.30 1014.05 1014.97 1015.36 1015.91 1016.76 1017.12 1017.16 1016.96 1017.06 1016.88 1016.85 1016.91 1017.27 1017.17 1017.36 1017.15 1017.56 1018.20 1017.94 1017.65 1017.81 1018.25 1017.52 1018.15 1016.56 1015.35 1016.58 1017.52 1018.55 1019.35 1020.65 1022.20 1023.29
1011.91 1012.41 1012.92 1013.36 1014.44 1015.42 1016.16 1014.40 1008.54 1009.07 1009.82 1012.04 1013.80 1014.21 1014.77 1015.24 1015.54 1016.26 1016.24 1015.46 1015.04 1015.68 1015.59 1015.93 1016.31 1016.67 1017.00 1017.18 1017.27 1018.28 1018.03 1017.55 1018.05 1019.02 1018.02 1016.11 1015.76 1015.80 1016.81 1017.67 1018.57 1019.51 1020.71 1021.67 1022.55
1010.41 1011.01 1010.97 1011.95 1013.28 1014.20 1013.63 1010.81 1008.97 1008.89 1009.48 1010.53 1010.79 1011.68 1012.54 1013.65 1014.53 1015.07 1015.00 1014.00 1014.13 1014.26 1014.48 1014.84 1015.80 1016.78 1017.26 1017.33 1017.49 1017.13 1016.83 1017.79 1017.70 1017.34 1016.46 1015.08 1014.92 1014.45 1015.88 1016.54 1018.08 1019.29 1020.18 1021.26 1022.21
1009.12 1008.95 1008.52 1010.55 1012.19 1011.89 1010.16 1008.22 1009.08 1009.19 1009.03 1009.52 1009.70 1010.16 1010.76 1011.75 1012.55 1013.01 1012.77 1013.11 1013.11 1013.82 1014.32 1014.81 1015.57 1017.08 1017.31 1016.60 1015.89 1017.01 1016.54 1016.48 1016.26 1015.91 1015.27 1014.45 1013.32 1013.51 1014.13 1015.36 1016.78 1018.02 1019.29 1020.34 1021.18
1006.96 1006.78 1007.26 1009.16 1009.63 1008.86 1008.75 1006.72 1008.68 1008.45 1009.03 1008.57 1008.58 1008.57 1009.41 1010.56 1011.05 1011.62 1011.34 1011.05 1011.70 1012.68 1013.90 1014.08 1014.82 1015.66 1015.80 1015.90 1016.17 1015.30 1014.82 1014.79 1014.47 1015.15 1015.12 1014.87 1013.06 1013.81 1014.40 1015.04 1016.13 1017.23 1018.61 1019.68 1020.43
1005.97 1005.85 1006.08 1006.70 1006.19 1007.03 1006.97 1007.28 1007.85 1008.01 1007.71 1007.99 1008.08 1008.09 1008.72 1009.22 1009.96 1009.74 1010.35 1010.69 1011.44 1011.71 1012.08 1013.20 1014.23 1015.14 1015.23 1016.11 1016.19 1015.35 1014.73 1013.90 1013.67 1014.17 1013.21 1014.22 1012.96 1014.27 1014.88 1015.37 1015.89 1016.71 1017.84 1019.07 1020.02
1005.29 1004.64 1004.87 1004.30 1004.81 1005.35 1006.01 1005.74 1006.42 1006.93 1007.20 1007.32 1007.20 1008.14 1008.23 1008.07 1008.44 1008.63 1009.64 1010.64 1011.11 1011.19 1011.40 1011.32 1012.16 1011.86 1011.23 1011.74 1012.51 1013.80 1013.54 1013.52 1013.23 1012.59 1011.88 1010.83 1012.66 1013.99 1014.44 1015.14 1015.78 1016.42 1017.23 1018.37 1019.24
1005.24 1004.50 1004.24 1003.51 1003.50 1003.96 1004.86 1004.30 1004.98 1005.64 1006.00 1006.72 1006.77 1006.14 1006.92 1007.76 1007.88 1007.36 1009.06 1010.74 1011.72 1011.65 1011.61 1011.58 1011.37 1011.55 1010.98 1011.41 1011.84 1011.63 1011.66 1012.41 1011.85 1010.48 1010.94 1010.25 1011.19 1012.35 1013.34 1014.00 1014.48 1015.25 1016.52 1017.75 1018.35
1005.77 1006.15 1005.55 1004.96 1004.28 1003.66 1003.44 1003.14 1003.71 1004.46 1004.89 1005.16 1005.41 1005.66 1006.63 1006.26 1005.08 1006.38 1008.20 1009.40 1010.24 1011.81 1011.85 1011.76 1011.00 1011.75 1011.56 1011.84 1012.05 1011.88 1011.21 1010.75 1010.61 1010.47 1010.23 1010.76 1010.23 1011.53 1012.42 1013.63 1014.59 1015.19 1016.26 1017.10 1017.58
1005.78 1006.01 1006.27 1004.76 1004.43 1003.98 1002.72 1002.53 1002.70 1004.28 1003.94 1004.28 1004.80 1006.20 1005.90 1004.26 1006.28 1006.88 1007.42 1008.00 1008.64 1009.70 1011.20 1011.96 1011.96 1012.30 1011.18 1012.17 1012.78 1012.18 1009.18 1010.10 1009.94 1009.77 1009.99 1010.35 1009.89 1011.77 1013.04 1013.74 1014.20 1014.72 1015.64 1016.36 1017.02
Wind_Speed
1 2 3 4 4 5 6 7 7 8 8 9 9 9 9 9 8 3 1 2 3 2 2 2 2 3 3 4 3 1 3 5 7 7 5 3 5 2 1 3 2 3 4 5 8
2 1 2 3 3 4 5 6 7 8 9 10 11 9 9 9 2 2 3 5 3 4 2 3 2 2 4 3 2 2 2 4 3 3 6 5 1 1 4 2 4 5 7 5 6
4 2 2 1 2 3 5 6 7 8 10 10 11 10 9 6 3 2 4 3 2 1 1 2 4 2 3 1 2 1 0 4 4 3 2 3 2 2 2 3 2 2 5 5 6
6 4 3 3 2 3 4 5 6 8 10 11 12 11 11 4 3 1 3 0 3 2 2 3 2 2 1 2 1 2 2 2 4 4 4 3 2 3 6 2 5 6 6 4 6
6 6 5 4 3 3 4 5 6 7 9 11 11 11 4 1 2 1 1 3 2 2 2 3 1 3 3 3 3 3 3 3 3 4 4 2 7 4 6 8 7 8 6 6 5
8 7 6 5 4 4 4 5 7 9 10 10 9 10 2 5 3 2 4 3 2 3 3 2 3 2 5 2 3 2 2 4 5 4 5 6 3 6 4 10 8 5 6 7 7
9 8 7 6 4 4 4 6 8 10 9 6 4 3 2 6 1 3 2 2 1 2 4 1 5 2 6 4 1 1 4 6 6 4 4 7 5 10 8 11 9 6 5 4 4
10 8 7 6 5 4 4 6 9 8 4 4 3 1 5 2 1 2 4 4 3 4 3 3 3 6 1 5 2 2 2 4 4 4 3 8 3 6 13 12 9 7 5 4 5
10 9 8 7 6 4 4 6 8 4 2 6 1 1 5 2 3 2 1 5 5 4 6 4 4 3 4 5 3 2 6 7 4 1 2 8 1 7 11 9 7 7 5 3 4
11 11 9 7 6 4 5 7 2 3 2 1 1 3 4 4 3 3 1 5 3 7 5 3 3 4 4 8 8 6 6 5 6 2 3 6 12 5 10 10 9 5 3 3 4
13 11 9 8 6 6 3 2 4 4 4 8 4 1 4 3 1 2 2 5 4 3 8 2 7 13 17 15 5 1 4 11 2 2 4 10 12 10 12 10 10 8 7 7 5
14 13 9 8 7 6 3 4 2 3 6 10 5 4 2 4 4 4 5 9 6 8 8 5 14 13 2 8 8 5 9 14 6 3 4 9 14 16 10 11 11 9 9 9 8
17 14 12 9 8 5 7 5 1 1 5 5 6 7 6 8 6 14 13 6 5 9 15 12 2 5 8 7 10 11 14 12 9 1 5 5 16 18 6 4 5 8 10 11 11
18 15 13 11 5 5 6 8 5 2 7 6 7 5 6 7 5 1 7 3 5 13 9 8 3 6 8 8 12 14 12 10 8 4 9 3 7 6 7 8 9 11 12 12 12
20 18 17 18 6 9 2 9 9 2 11 4 5 2 3 8 11 1 0 1 8 8 8 5 9 10 11 10 11 5 5 9 6 9 5 9 7 6 4 10 12 13 14 14 12
23 22 18 11 2 2 7 11 5 5 16 5 5 6 9 2 2 4 3 3 3 5 2 4 1 5 4 3 7 12 7 5 3 1 9 15 13 7 7 7 7 13 13 14 14
22 23 20 8 8 8 9 6 7 17 5 8 7 9 7 6 5 6 11 11 10 9 13 4 10 4 4 6 2 6 10 4 5 6 7 2 10 9 7 2 2 14 15 15 13
24 23 21 11 7 12 6 7 16 15 20 5 6 8 11 10 4 6 10 12 14 4 4 10 8 16 12 14 10 16 12 5 8 7 1 2 8 5 2 4 4 5 15 15 15
25 13 10 12 14 11 11 17 24 17 17 14 7 7 10 7 6 8 12 10 14 18 12 9 6 2 4 3 10 8 11 1 4 2 3 7 5 7 4 6 5 9 15 17 17
12 12 15 19 18 12 13 29 17 8 12 13 20 14 18 15 14 15 16 9 8 19 4 6 5 2 3 3 1 5 11 5 4 5 7 6 6 8 8 13 9 12 15 16 16
12 9 13 21 14 10 15 27 24 6 7 17 20 14 11 13 17 12 14 6 12 12 15 6 5 4 5 12 18 7 8 4 3 5 4 4 5 4 12 13 15 13 15 17 19
12 13 16 20 16 10 21 28 18 27 9 13 6 20 15 14 16 17 20 12 16 16 18 11 3 6 12 1 3 10 11 12 8 7 5 2 6 2 2 6 9 10 13 15 17
12 12 15 18 19 20 27 28 26 21 30 18 14 10 10 15 11 18 14 9 15 18 19 13 6 6 4 4 3 9 9 15 11 2 11 7 3 1 1 4 7 9 12 14 16
4 5 6 16 22 28 26 31 29 26 20 23 16 16 10 13 12 8 13 7 14 14 7 17 10 17 19 8 11 13 15 16 18 11 12 20 8 8 10 11 11 11 12 15 16
2 2 0 7 20 28 28 19 29 25 28 16 13 28 25 20 20 24 12 6 5 6 8 13 16 18 22 11 9 10 20 22 25 27 17 16 20 16 16 16 15 15 12 15 17
4 1 2 1 2 27 27 30 33 30 16 27 26 23 19 29 31 22 22 17 13 9 8 5 14 16 16 13 12 9 18 25 26 24 23 15 18 8 13 8 9 12 14 16 15
0 3 2 1 2 2 18 28 31 23 23 30 31 25 25 35 24 16 9 13 11 18 19 13 11 8 16 9 5 11 23 21 17 17 19 20 16 7 8 12 13 14 16 15 14
Wind_Direction
90 48 68 48 33 16 17 14 8 356 346 340 337 332 326 327 305 197 243 7 289 199 226 159 94 48 52 76 40 254 176 166 170 178 147 143 184 152 353 276 58 39 40 17 350
171 331 20 50 21 13 8 3 354 345 340 336 336 336 330 328 274 90 11 312 301 192 198 172 129 83 88 70 42 274 228 160 160 155 158 149 211 171 214 185 156 134 101 55 40
193 219 291 347 5 357 357 351 342 337 336 332 332 327 321 298 246 86 353 324 160 271 80 93 102 64 95 61 28 90 66 142 173 170 164 149 216 167 235 232 134 149 127 55 42
207 210 248 281 303 326 333 333 332 332 332 331 327 321 313 251 288 106 353 266 167 123 130 113 76 99 98 137 82 200 138 170 143 175 166 199 141 218 221 78 100 100 95 77 50
214 218 225 250 274 289 311 323 331 329 326 324 320 320 279 277 250 82 68 133 163 132 127 136 133 139 183 151 165 212 164 198 187 194 232 185 225 256 215 137 119 108 105 87 68
222 223 230 236 256 285 304 319 326 322 318 316 316 312 260 255 101 99 124 125 170 146 129 166 164 151 110 160 239 103 219 256 247 227 202 214 235 185 157 155 140 136 84 59 43
221 226 233 244 252 275 304 319 326 324 319 326 333 319 226 267 66 122 124 94 88 193 153 121 142 188 144 146 92 30 288 291 223 203 213 188 223 225 143 162 142 126 111 83 50
213 223 230 244 260 275 300 324 326 326 339 25 15 275 262 35 111 145 141 95 86 51 78 91 109 96 38 122 97 239 249 253 122 166 127 208 241 149 155 166 159 156 158 143 69
210 217 225 235 247 262 289 304 311 300 307 330 238 270 253 126 181 143 219 146 109 73 64 81 60 71 153 193 211 209 260 229 285 181 140 223 285 129 171 191 172 181 168 117 84
207 217 212 222 230 244 273 296 298 288 235 276 68 235 167 202 140 133 50 129 122 130 111 86 94 181 179 199 236 202 221 229 243 136 222 240 252 168 185 201 206 188 159 128 83
202 213 209 212 213 224 260 232 226 210 218 211 188 283 131 96 166 122 165 119 118 159 180 118 207 214 215 219 262 206 236 259 200 116 240 246 265 254 200 218 214 201 179 152 106
202 196 205 205 201 214 208 239 281 38 287 229 229 267 162 185 130 185 176 178 177 187 138 162 231 233 140 193 217 227 251 259 272 217 238 264 260 264 220 228 232 212 182 160 142
194 192 191 191 199 187 214 220 70 243 265 246 195 197 185 169 208 180 180 160 184 168 194 211 145 168 171 169 201 226 233 242 263 187 217 269 262 250 217 178 169 177 168 165 160
189 182 175 165 193 163 222 214 189 277 263 231 210 207 150 155 208 70 188 166 183 207 178 237 151 154 183 210 204 240 221 232 231 243 263 239 282 236 208 200 196 184 182 168 161
188 175 172 178 139 188 201 156 149 250 269 127 146 66 138 184 123 158 110 128 181 168 183 193 177 188 212 223 186 268 144 203 212 234 266 213 257 245 172 230 205 191 181 171 165
185 171 167 196 215 177 129 131 158 196 239 162 128 160 151 139 100 118 142 60 93 129 278 279 31 196 204 94 193 136 101 82 84 205 251 231 222 193 212 220 174 181 183 174 167
191 175 166 182 194 147 146 158 179 225 128 177 172 173 165 150 143 166 172 179 172 182 221 192 218 172 165 115 95 185 166 180 214 208 252 61 216 261 243 172 105 178 178 178 174
191 183 192 184 162 148 175 191 218 220 207 108 119 138 183 153 184 157 159 190 218 201 143 197 231 190 185 215 180 190 198 207 213 203 210 106 231 242 329 109 121 146 173 174 179
188 193 192 190 159 162 185 202 220 207 187 146 132 165 196 206 171 167 198 210 196 192 206 194 248 197 196 146 167 176 213 137 111 81 261 205 226 233 181 193 167 160 175 183 185
194 199 201 171 162 179 205 214 224 189 157 175 205 189 185 184 176 194 179 190 200 194 201 197 234 219 139 146 130 212 144 171 214 217 229 202 241 225 205 207 181 184 191 189 190
201 208 173 167 168 202 208 227 218 195 157 180 211 199 207 179 197 195 199 163 201 190 193 152 239 135 148 208 186 171 189 205 222 225 240 259 223 215 204 185 189 195 194 192 193
201 215 164 157 199 202 211 213 220 211 223 229 223 209 191 180 192 208 202 206 186 150 176 195 157 194 207 110 306 237 215 184 199 187 241 315 242 176 123 167 187 182 189 197 198
222 203 172 178 199 203 222 222 222 210 212 218 212 202 193 192 213 205 201 197 167 169 169 170 198 227 219 208 180 219 202 217 237 56 206 210 209 119 200 243 202 190 189 195 196
226 213 188 196 202 206 205 215 217 213 220 212 229 228 207 210 225 203 208 187 191 200 189 167 173 208 224 216 160 203 205 202 202 221 214 227 217 196 205 214 202 200 198 195 196
301 262 267 203 201 206 207 207 215 211 216 196 216 217 213 229 225 233 195 152 193 230 186 189 226 217 236 242 203 208 194 194 208 220 213 230 224 194 194 201 204 207 185 190 198
139 265 263 203 253 207 202 209 211 212 176 211 223 205 212 217 211 217 220 213 207 173 190 221 228 216 242 228 215 228 211 202 211 219 234 243 245 184 202 188 192 189 185 200 200
3 134 253 251 193 274 217 221 216 207 216 217 218 221 215 224 229 250 228 220 205 183 187 183 200 180 231 192 159 248 210 198 205 213 212 218 230 135 177 195 202 192 193 202 196